HAWK-10B

Last updated on Mon Sep 16 2024 00:02:04 GMT+0000 (Coordinated Universal Time)

1 60545U 24149CF 24259.46844087 .00008243 00000+0 81113-3 0 9996 2 60545 97.7461 334.4685 0006698 75.1796 285.0164 14.92328653 4411

Satellite not in orbit

HAWK-10B